This demonstration page uses our WeatherBlox Daily Observations layout. Learn more.

38.89511, -77.03637

Hourly Observations for June 2, 2018

Temp ( °F °C ) Dew Point ( °F °C ) Humidity (%) Winds ( mph kmh ) Pressure ( in mb ) Visibility ( mi km ) Precip ( " mm )
12:23 am 00:23 Mostly Cloudy with Thunderstorms 76 24.4 67 19.4 74 74 NNW 12 19 29.77 1008 10 16.09344 0 0
12:32 am 00:32 Mostly Cloudy with Nearby Thunderstorms 76 24.4 67 19.4 74 74 N 9 15 29.77 1008 10 16.09344 0 0
12:43 am 00:43 Mostly Cloudy 76 24.4 68 20 77 77 N 8 13 29.77 1008 10 16.09344 0 0
12:52 am 00:52 Mostly Cloudy 76 24.4 68 20 77 77 N 8 13 29.74 1007 10 16.09344 0 0
1:52 am 01:52 Mostly Cloudy with Light Rain 74 23.3 69 20.6 85 85 WSW 8 13 29.77 1008 10 16.09344 0.001 0.001
2:52 am 02:52 Cloudy with Light Rain 74 23.3 69 20.6 85 85 WSW 3 6 29.74 1007 10 16.09344 0.001 0.001
3:52 am 03:52 Cloudy 74 23.3 70 21.1 88 88 N 5 7 29.71 1006 10 16.09344 0.001 0.001
4:52 am 04:52 Cloudy 74 23.3 69 20.6 85 85 N 3 6 29.71 1006 10 16.09344 0 0
5:52 am 05:52 Mostly Cloudy 74 23.3 69 20.6 85 85 NNW 9 15 29.74 1007 10 16.09344 0 0
6:52 am 06:52 Cloudy 74 23.3 69 20.6 85 85 NNW 7 11 29.74 1007 10 16.09344 0 0
7:52 am 07:52 Mostly Cloudy 75 23.9 69 20.6 82 82 NNW 6 9 29.77 1008 10 16.09344 0 0
8:52 am 08:52 Mostly Cloudy 77 25 69 20.6 77 77 N 5 7 29.77 1008 10 16.09344 0 0
9:52 am 09:52 Mostly Cloudy 80 26.7 70 21.1 71 71 NNE 6 9 29.77 1008 10 16.09344 0 0
10:52 am 10:52 Mostly Cloudy 80 26.7 69 20.6 69 69 ENE 6 9 29.77 1008 10 16.09344 0 0
11:52 am 11:52 Cloudy 83 28.3 70 21.1 65 65 N 3 6 29.77 1008 10 16.09344 0 0
12:08 pm 12:08 Cloudy 82 27.8 70 21.1 67 67 NNE 3 6 29.77 1008 10 16.09344 0 0
12:35 pm 12:35 Cloudy 83 28.3 69 20.6 63 63 NE 6 9 29.77 1008 10 16.09344 0 0
12:52 pm 12:52 Cloudy 83 28.3 69 20.6 63 63 ENE 5 7 29.74 1007 10 16.09344 0 0
1:52 pm 13:52 Cloudy 85 29.4 70 21.1 61 61 N 8 13 29.74 1007 10 16.09344 0 0
2:28 pm 14:28 Cloudy with Thunderstorms 84 28.9 70 21.1 63 63 NNE 9 15 29.74 1007 10 16.09344 0 0
2:52 pm 14:52 Cloudy with Thunderstorms 79 26.1 70 21.1 74 74 SSE 8 13 29.74 1007 10 16.09344 0 0
3:26 pm 15:26 Mostly Cloudy with Light Rain 77 25 70 21.1 79 79 S 9 15 29.74 1007 10 16.09344 0.001 0.001
3:52 pm 15:52 Mostly Cloudy with Light Rain 76 24.4 71 21.7 85 85 SW 5 7 29.74 1007 10 16.09344 0.001 0.001
4:52 pm 16:52 Mostly Cloudy with Light Rain 76 24.4 71 21.7 85 85 SW 5 7 29.74 1007 7 11.265408 0.03 0.762
5:52 pm 17:52 Cloudy 78 25.6 72 22.2 82 82 NNW 8 13 29.74 1007 10 16.09344 0.01 0.254
6:39 pm 18:39 Cloudy 77 25 70 21.1 79 79 N 7 11 29.77 1008 10 16.09344 0 0
6:52 pm 18:52 Cloudy 77 25 70 21.1 79 79 N 7 11 29.77 1008 10 16.09344 0 0
7:52 pm 19:52 Mostly Cloudy with Nearby Thunderstorms 77 25 70 21.1 79 79 NNE 7 11 29.77 1008 10 16.09344 0 0
8:12 pm 20:12 Cloudy 76 24.4 69 20.6 79 79 N 7 11 29.77 1008 10 16.09344 0 0
8:41 pm 20:41 Cloudy with Nearby Thunderstorms 76 24.4 68 20 77 77 N 9 15 29.77 1008 10 16.09344 0 0
8:52 pm 20:52 Cloudy 76 24.4 69 20.6 79 79 N 5 7 29.77 1008 10 16.09344 0 0
9:02 pm 21:02 Cloudy with Nearby Thunderstorms 76 24.4 69 20.6 79 79 N 5 7 29.77 1008 10 16.09344 0 0
9:12 pm 21:12 Cloudy with Light Thunderstorms 76 24.4 69 20.6 79 79 NNE 5 7 29.77 1008 10 16.09344 0.001 0.001
9:48 pm 21:48 Cloudy with Light Rain 75 24 70 21 83 83 N 5 7 29.8 1009 10 16.09344 0.001 0.001
9:52 pm 21:52 Cloudy with Light Rain 76 24.4 70 21.1 82 82 N 5 7 29.77 1008 10 16.09344 0.001 0.001
10:27 pm 22:27 Cloudy 75 23.9 70 21.1 84 84 NNW 7 11 29.8 1009 10 16.09344 0.01 0.254
10:41 pm 22:41 Cloudy with Nearby Thunderstorms 75 23.9 70 21.1 84 84 NNW 7 11 29.8 1009 10 16.09344 0.01 0.254
10:52 pm 22:52 Cloudy with Nearby Thunderstorms 75 23.9 70 21.1 84 84 N 7 11 29.77 1008 10 16.09344 0.01 0.254
11:00 pm 23:00 Cloudy 75 23.9 70 21.1 84 84 NNE 9 15 29.8 1009 10 16.09344 0 0
11:16 pm 23:16 Cloudy with Nearby Thunderstorms 75 23.9 69 20.6 82 82 N 8 13 29.77 1008 10 16.09344 0 0
11:47 pm 23:47 Cloudy 75 24 70 21 83 83 N 9 15 29.8 1009 10 16.09344 0 0
11:52 pm 23:52 Cloudy 75 23.9 69 20.6 82 82 NNE 9 15 29.77 1008 10 16.09344 0 0

Powered by AerisWeather